owner,sensor,date,latitude,longitude,vertical_datum,sea_water_practical_salinity,qcFlag 
NERRS,ioos:station:NOAA.NERRS:marabwq:1,2014-09-01T01:45:00Z,27.9798,-97.0287,0.0,37.9,1111122 
NERRS,ioos:station:NOAA.NERRS:marabwq:1,2014-09-01T02:45:00Z,27.9798,-97.0287,0.0,37.9,1111122 
NERRS,ioos:station:NOAA.NERRS:marabwq:1,2014-09-01T03:45:00Z,27.9798,-97.0287,0.0,37.9,1111122 
NERRS,ioos:station:NOAA.NERRS:marabwq:1,2014-09-01T04:45:00Z,27.9798,-97.0287,0.0,37.9,1111122 
NERRS,ioos:station:NOAA.NERRS:marabwq:1,2014-09-01T05:45:00Z,27.9798,-97.0287,0.0,37.9,1111122 
NERRS,ioos:station:NOAA.NERRS:marabwq:1,2014-09-01T06:45:00Z,27.9798,-97.0287,0.0,37.9,1111122 
NERRS,ioos:station:NOAA.NERRS:marabwq:1,2014-09-01T07:45:00Z,27.9798,-97.0287,0.0,37.9,1111122 
NERRS,ioos:station:NOAA.NERRS:marabwq:1,2014-09-01T08:45:00Z,27.9798,-97.0287,0.0,37.8,1111122 
NERRS,ioos:station:NOAA.NERRS:marabwq:1,2014-09-01T09:45:00Z,27.9798,-97.0287,0.0,37.9,1111122 
NERRS,ioos:station:NOAA.NERRS:marabwq:1,2014-09-01T10:45:00Z,27.9798,-97.0287,0.0,37.9,1111122 
NERRS,ioos:station:NOAA.NERRS:marabwq:1,2014-09-01T11:45:00Z,27.9798,-97.0287,0.0,37.8,1111122 
NERRS,ioos:station:NOAA.NERRS:marabwq:1,2014-09-01T12:45:00Z,27.9798,-97.0287,0.0,37.8,1111122 
NERRS,ioos:station:NOAA.NERRS:marabwq:1,2014-09-01T13:45:00Z,27.9798,-97.0287,0.0,37.9,1111122 
NERRS,ioos:station:NOAA.NERRS:marabwq:1,2014-09-01T14:45:00Z,27.9798,-97.0287,0.0,37.8,1111122 
NERRS,ioos:station:NOAA.NERRS:marabwq:1,2014-09-01T15:45:00Z,27.9798,-97.0287,0.0,37.8,1111122 
NERRS,ioos:station:NOAA.NERRS:marabwq:1,2014-09-01T16:45:00Z,27.9798,-97.0287,0.0,37.8,1111122 
NERRS,ioos:station:NOAA.NERRS:marabwq:1,2014-09-01T17:45:00Z,27.9798,-97.0287,0.0,37.9,1111122 
NERRS,ioos:station:NOAA.NERRS:marabwq:1,2014-09-01T19:45:00Z,27.9798,-97.0287,0.0,37.9,1111122 
NERRS,ioos:station:NOAA.NERRS:marabwq:1,2014-09-01T20:45:00Z,27.9798,-97.0287,0.0,37.9,1111122 
NERRS,ioos:station:NOAA.NERRS:marabwq:1,2014-09-01T21:45:00Z,27.9798,-97.0287,0.0,38.0,1111122 
NERRS,ioos:station:NOAA.NERRS:marabwq:1,2014-09-01T22:45:00Z,27.9798,-97.0287,0.0,36.3,1111122 
NERRS,ioos:station:NOAA.NERRS:marabwq:1,2014-09-01T23:45:00Z,27.9798,-97.0287,0.0,36.4,1111122 
NERRS,ioos:station:NOAA.NERRS:marabwq:1,2014-09-02T00:45:00Z,27.9798,-97.0287,0.0,38.1,1111122 
NERRS,ioos:station:NOAA.NERRS:marabwq:1,2014-09-02T01:45:00Z,27.9798,-97.0287,0.0,38.1,1111122 
NERRS,ioos:station:NOAA.NERRS:marabwq:1,2014-09-02T02:45:00Z,27.9798,-97.0287,0.0,38.1,1111122 
NERRS,ioos:station:NOAA.NERRS:marabwq:1,2014-09-02T03:45:00Z,27.9798,-97.0287,0.0,38.1,1111122 
NERRS,ioos:station:NOAA.NERRS:marabwq:1,2014-09-02T04:45:00Z,27.9798,-97.0287,0.0,38.1,1111122 
NERRS,ioos:station:NOAA.NERRS:marabwq:1,2014-09-02T06:45:00Z,27.9798,-97.0287,0.0,38.0,1111122 
NERRS,ioos:station:NOAA.NERRS:marabwq:1,2014-09-02T07:45:00Z,27.9798,-97.0287,0.0,38.0,1111122 
NERRS,ioos:station:NOAA.NERRS:marabwq:1,2014-09-02T08:45:00Z,27.9798,-97.0287,0.0,38.0,1111122 
NERRS,ioos:station:NOAA.NERRS:marabwq:1,2014-09-02T09:45:00Z,27.9798,-97.0287,0.0,38.0,1111122 
NERRS,ioos:station:NOAA.NERRS:marabwq:1,2014-09-02T10:45:00Z,27.9798,-97.0287,0.0,38.0,1111122 
NERRS,ioos:station:NOAA.NERRS:marabwq:1,2014-09-02T11:45:00Z,27.9798,-97.0287,0.0,37.7,1111122 
NERRS,ioos:station:NOAA.NERRS:marabwq:1,2014-09-02T12:45:00Z,27.9798,-97.0287,0.0,38.0,1111122 
NERRS,ioos:station:NOAA.NERRS:marabwq:1,2014-09-02T14:45:00Z,27.9798,-97.0287,0.0,39.0,1111122 
NERRS,ioos:station:NOAA.NERRS:marabwq:1,2014-09-02T15:45:00Z,27.9798,-97.0287,0.0,39.0,1111122 
NERRS,ioos:station:NOAA.NERRS:marabwq:1,2014-09-02T16:45:00Z,27.9798,-97.0287,0.0,38.9,1111122 
NERRS,ioos:station:NOAA.NERRS:marabwq:1,2014-09-02T17:45:00Z,27.9798,-97.0287,0.0,33.2,1111122 
NERRS,ioos:station:NOAA.NERRS:marabwq:1,2014-09-02T20:45:00Z,27.9798,-97.0287,0.0,38.9,1111122 
NERRS,ioos:station:NOAA.NERRS:marabwq:1,2014-09-02T22:45:00Z,27.9798,-97.0287,0.0,38.9,1111122 
NERRS,ioos:station:NOAA.NERRS:marabwq:1,2014-09-02T23:45:00Z,27.9798,-97.0287,0.0,38.9,1111122 
NERRS,ioos:station:NOAA.NERRS:marabwq:1,2014-09-03T00:45:00Z,27.9798,-97.0287,0.0,38.9,1111122 
NERRS,ioos:station:NOAA.NERRS:marabwq:1,2014-09-03T01:45:00Z,27.9798,-97.0287,0.0,35.0,1111122 
NERRS,ioos:station:NOAA.NERRS:marabwq:1,2014-09-03T02:45:00Z,27.9798,-97.0287,0.0,34.1,1111122 
NERRS,ioos:station:NOAA.NERRS:marabwq:1,2014-09-03T03:45:00Z,27.9798,-97.0287,0.0,36.4,1111122 
NERRS,ioos:station:NOAA.NERRS:marabwq:1,2014-09-03T04:45:00Z,27.9798,-97.0287,0.0,36.5,1111122 
NERRS,ioos:station:NOAA.NERRS:marabwq:1,2014-09-03T05:45:00Z,27.9798,-97.0287,0.0,35.8,1111122 
NERRS,ioos:station:NOAA.NERRS:marabwq:1,2014-09-03T06:45:00Z,27.9798,-97.0287,0.0,33.5,1111122 
NERRS,ioos:station:NOAA.NERRS:marabwq:1,2014-09-03T07:45:00Z,27.9798,-97.0287,0.0,36.7,1111122 
NERRS,ioos:station:NOAA.NERRS:marabwq:1,2014-09-03T08:45:00Z,27.9798,-97.0287,0.0,38.6,1111122 
NERRS,ioos:station:NOAA.NERRS:marabwq:1,2014-09-03T09:45:00Z,27.9798,-97.0287,0.0,35.7,1111122 
NERRS,ioos:station:NOAA.NERRS:marabwq:1,2014-09-03T10:45:00Z,27.9798,-97.0287,0.0,36.7,1111122 
NERRS,ioos:station:NOAA.NERRS:marabwq:1,2014-09-03T11:45:00Z,27.9798,-97.0287,0.0,36.0,1111122 
NERRS,ioos:station:NOAA.NERRS:marabwq:1,2014-09-03T13:45:00Z,27.9798,-97.0287,0.0,38.9,1111122 
NERRS,ioos:station:NOAA.NERRS:marabwq:1,2014-09-03T14:45:00Z,27.9798,-97.0287,0.0,38.9,1111122 
NERRS,ioos:station:NOAA.NERRS:marabwq:1,2014-09-04T00:45:00Z,27.9798,-97.0287,0.0,38.7,1111122 
NERRS,ioos:station:NOAA.NERRS:marabwq:1,2014-09-04T01:45:00Z,27.9798,-97.0287,0.0,32.8,1111122 
NERRS,ioos:station:NOAA.NERRS:marabwq:1,2014-09-04T02:45:00Z,27.9798,-97.0287,0.0,34.4,1111122 
NERRS,ioos:station:NOAA.NERRS:marabwq:1,2014-09-04T03:45:00Z,27.9798,-97.0287,0.0,37.1,1111122 
NERRS,ioos:station:NOAA.NERRS:marabwq:1,2014-09-04T04:45:00Z,27.9798,-97.0287,0.0,34.5,1111122 
NERRS,ioos:station:NOAA.NERRS:marabwq:1,2014-09-04T05:45:00Z,27.9798,-97.0287,0.0,38.6,1111122 
NERRS,ioos:station:NOAA.NERRS:marabwq:1,2014-09-04T06:45:00Z,27.9798,-97.0287,0.0,36.1,1111122 
NERRS,ioos:station:NOAA.NERRS:marabwq:1,2014-09-04T07:45:00Z,27.9798,-97.0287,0.0,36.0,1111122 
NERRS,ioos:station:NOAA.NERRS:marabwq:1,2014-09-04T08:45:00Z,27.9798,-97.0287,0.0,35.1,1111122 
NERRS,ioos:station:NOAA.NERRS:marabwq:1,2014-09-04T10:45:00Z,27.9798,-97.0287,0.0,34.4,1111122 
NERRS,ioos:station:NOAA.NERRS:marabwq:1,2014-09-04T11:45:00Z,27.9798,-97.0287,0.0,38.8,1111122 
NERRS,ioos:station:NOAA.NERRS:marabwq:1,2014-09-04T12:45:00Z,27.9798,-97.0287,0.0,38.9,1111122 
NERRS,ioos:station:NOAA.NERRS:marabwq:1,2014-09-04T13:45:00Z,27.9798,-97.0287,0.0,38.9,1111122 
NERRS,ioos:station:NOAA.NERRS:marabwq:1,2014-09-04T14:45:00Z,27.9798,-97.0287,0.0,39.0,1111122 
NERRS,ioos:station:NOAA.NERRS:marabwq:1,2014-09-04T15:45:00Z,27.9798,-97.0287,0.0,39.0,1111122 
NERRS,ioos:station:NOAA.NERRS:marabwq:1,2014-09-04T16:45:00Z,27.9798,-97.0287,0.0,31.8,1111122 
NERRS,ioos:station:NOAA.NERRS:marabwq:1,2014-09-04T17:45:00Z,27.9798,-97.0287,0.0,39.0,1111122 
NERRS,ioos:station:NOAA.NERRS:marabwq:1,2014-09-04T18:45:00Z,27.9798,-97.0287,0.0,39.0,1111122 
NERRS,ioos:station:NOAA.NERRS:marabwq:1,2014-09-04T19:45:00Z,27.9798,-97.0287,0.0,39.0,1111122 
NERRS,ioos:station:NOAA.NERRS:marabwq:1,2014-09-04T20:45:00Z,27.9798,-97.0287,0.0,38.9,1111122 
NERRS,ioos:station:NOAA.NERRS:marabwq:1,2014-09-04T21:45:00Z,27.9798,-97.0287,0.0,38.8,1111122 
NERRS,ioos:station:NOAA.NERRS:marabwq:1,2014-09-04T22:45:00Z,27.9798,-97.0287,0.0,38.7,1111122 
NERRS,ioos:station:NOAA.NERRS:marabwq:1,2014-09-04T23:45:00Z,27.9798,-97.0287,0.0,38.7,1111122 
NERRS,ioos:station:NOAA.NERRS:marabwq:1,2014-09-05T00:45:00Z,27.9798,-97.0287,0.0,38.6,1111122 
NERRS,ioos:station:NOAA.NERRS:marabwq:1,2014-09-05T01:45:00Z,27.9798,-97.0287,0.0,38.6,1111122 
NERRS,ioos:station:NOAA.NERRS:marabwq:1,2014-09-05T02:45:00Z,27.9798,-97.0287,0.0,38.7,1111122 
NERRS,ioos:station:NOAA.NERRS:marabwq:1,2014-09-05T03:45:00Z,27.9798,-97.0287,0.0,35.0,1111122 
NERRS,ioos:station:NOAA.NERRS:marabwq:1,2014-09-05T04:45:00Z,27.9798,-97.0287,0.0,37.1,1111122 
NERRS,ioos:station:NOAA.NERRS:marabwq:1,2014-09-05T06:45:00Z,27.9798,-97.0287,0.0,33.3,1111122 
NERRS,ioos:station:NOAA.NERRS:marabwq:1,2014-09-05T08:45:00Z,27.9798,-97.0287,0.0,35.4,1111122 
NERRS,ioos:station:NOAA.NERRS:marabwq:1,2014-09-05T09:45:00Z,27.9798,-97.0287,0.0,33.2,1111122 
NERRS,ioos:station:NOAA.NERRS:marabwq:1,2014-09-05T11:45:00Z,27.9798,-97.0287,0.0,38.6,1111122 
NERRS,ioos:station:NOAA.NERRS:marabwq:1,2014-09-05T12:45:00Z,27.9798,-97.0287,0.0,38.6,1111122 
NERRS,ioos:station:NOAA.NERRS:marabwq:1,2014-09-05T13:45:00Z,27.9798,-97.0287,0.0,38.6,1111122 
NERRS,ioos:station:NOAA.NERRS:marabwq:1,2014-09-05T14:45:00Z,27.9798,-97.0287,0.0,38.6,1111122 
NERRS,ioos:station:NOAA.NERRS:marabwq:1,2014-09-05T15:45:00Z,27.9798,-97.0287,0.0,38.7,1111122 
NERRS,ioos:station:NOAA.NERRS:marabwq:1,2014-09-05T16:45:00Z,27.9798,-97.0287,0.0,38.7,1111122 
NERRS,ioos:station:NOAA.NERRS:marabwq:1,2014-09-05T17:45:00Z,27.9798,-97.0287,0.0,38.7,1111122 
NERRS,ioos:station:NOAA.NERRS:marabwq:1,2014-09-05T18:45:00Z,27.9798,-97.0287,0.0,33.5,1111122 
NERRS,ioos:station:NOAA.NERRS:marabwq:1,2014-09-05T19:45:00Z,27.9798,-97.0287,0.0,38.7,1111122 
NERRS,ioos:station:NOAA.NERRS:marabwq:1,2014-09-05T21:45:00Z,27.9798,-97.0287,0.0,38.8,1111122 
NERRS,ioos:station:NOAA.NERRS:marabwq:1,2014-09-05T23:45:00Z,27.9798,-97.0287,0.0,38.9,1111122 
NERRS,ioos:station:NOAA.NERRS:marabwq:1,2014-09-06T00:45:00Z,27.9798,-97.0287,0.0,39.0,1111122 
NERRS,ioos:station:NOAA.NERRS:marabwq:1,2014-09-06T02:45:00Z,27.9798,-97.0287,0.0,39.0,1111122 
NERRS,ioos:station:NOAA.NERRS:marabwq:1,2014-09-06T03:45:00Z,27.9798,-97.0287,0.0,39.0,1111122 
NERRS,ioos:station:NOAA.NERRS:marabwq:1,2014-09-06T04:45:00Z,27.9798,-97.0287,0.0,39.1,1111122 
NERRS,ioos:station:NOAA.NERRS:marabwq:1,2014-09-06T05:45:00Z,27.9798,-97.0287,0.0,39.2,1111122 
NERRS,ioos:station:NOAA.NERRS:marabwq:1,2014-09-06T06:45:00Z,27.9798,-97.0287,0.0,39.2,1111122 
NERRS,ioos:station:NOAA.NERRS:marabwq:1,2014-09-06T07:45:00Z,27.9798,-97.0287,0.0,39.2,1111122 
NERRS,ioos:station:NOAA.NERRS:marabwq:1,2014-09-06T09:45:00Z,27.9798,-97.0287,0.0,39.1,1111122 
NERRS,ioos:station:NOAA.NERRS:marabwq:1,2014-09-06T10:45:00Z,27.9798,-97.0287,0.0,39.0,1111122 
NERRS,ioos:station:NOAA.NERRS:marabwq:1,2014-09-06T12:45:00Z,27.9798,-97.0287,0.0,39.0,1111122 
NERRS,ioos:station:NOAA.NERRS:marabwq:1,2014-09-06T13:45:00Z,27.9798,-97.0287,0.0,39.0,1111122 
NERRS,ioos:station:NOAA.NERRS:marabwq:1,2014-09-06T14:45:00Z,27.9798,-97.0287,0.0,39.0,1111122 
NERRS,ioos:station:NOAA.NERRS:marabwq:1,2014-09-06T15:45:00Z,27.9798,-97.0287,0.0,39.1,1111122 
NERRS,ioos:station:NOAA.NERRS:marabwq:1,2014-09-06T16:45:00Z,27.9798,-97.0287,0.0,39.2,1111122 
NERRS,ioos:station:NOAA.NERRS:marabwq:1,2014-09-06T17:45:00Z,27.9798,-97.0287,0.0,39.7,1111122 
NERRS,ioos:station:NOAA.NERRS:marabwq:1,2014-09-06T18:45:00Z,27.9798,-97.0287,0.0,39.8,1111122 
NERRS,ioos:station:NOAA.NERRS:marabwq:1,2014-09-06T19:45:00Z,27.9798,-97.0287,0.0,39.8,1111122 
NERRS,ioos:station:NOAA.NERRS:marabwq:1,2014-09-06T20:45:00Z,27.9798,-97.0287,0.0,39.7,1111122 
NERRS,ioos:station:NOAA.NERRS:marabwq:1,2014-09-06T21:45:00Z,27.9798,-97.0287,0.0,39.6,1111122 
NERRS,ioos:station:NOAA.NERRS:marabwq:1,2014-09-06T22:45:00Z,27.9798,-97.0287,0.0,39.7,1111122 
NERRS,ioos:station:NOAA.NERRS:marabwq:1,2014-09-07T00:45:00Z,27.9798,-97.0287,0.0,39.6,1111122 
NERRS,ioos:station:NOAA.NERRS:marabwq:1,2014-09-07T01:45:00Z,27.9798,-97.0287,0.0,39.7,1111122 
NERRS,ioos:station:NOAA.NERRS:marabwq:1,2014-09-07T03:45:00Z,27.9798,-97.0287,0.0,39.5,1111122 
NERRS,ioos:station:NOAA.NERRS:marabwq:1,2014-09-07T04:45:00Z,27.9798,-97.0287,0.0,39.5,1111122 
NERRS,ioos:station:NOAA.NERRS:marabwq:1,2014-09-07T06:45:00Z,27.9798,-97.0287,0.0,39.6,1111122 
NERRS,ioos:station:NOAA.NERRS:marabwq:1,2014-09-07T07:45:00Z,27.9798,-97.0287,0.0,39.6,1111122 
NERRS,ioos:station:NOAA.NERRS:marabwq:1,2014-09-07T08:45:00Z,27.9798,-97.0287,0.0,39.5,1111122 
NERRS,ioos:station:NOAA.NERRS:marabwq:1,2014-09-07T09:45:00Z,27.9798,-97.0287,0.0,39.5,1111122 
NERRS,ioos:station:NOAA.NERRS:marabwq:1,2014-09-07T10:45:00Z,27.9798,-97.0287,0.0,39.4,1111122 
NERRS,ioos:station:NOAA.NERRS:marabwq:1,2014-09-07T11:45:00Z,27.9798,-97.0287,0.0,39.4,1111122 
NERRS,ioos:station:NOAA.NERRS:marabwq:1,2014-09-07T12:45:00Z,27.9798,-97.0287,0.0,39.4,1111122 
NERRS,ioos:station:NOAA.NERRS:marabwq:1,2014-09-07T13:45:00Z,27.9798,-97.0287,0.0,39.4,1111122 
NERRS,ioos:station:NOAA.NERRS:marabwq:1,2014-09-07T14:45:00Z,27.9798,-97.0287,0.0,39.4,1111122 
NERRS,ioos:station:NOAA.NERRS:marabwq:1,2014-09-07T15:45:00Z,27.9798,-97.0287,0.0,39.4,1111122 
NERRS,ioos:station:NOAA.NERRS:marabwq:1,2014-09-07T17:45:00Z,27.9798,-97.0287,0.0,39.5,1111122 
NERRS,ioos:station:NOAA.NERRS:marabwq:1,2014-09-07T18:45:00Z,27.9798,-97.0287,0.0,39.5,1111122 
NERRS,ioos:station:NOAA.NERRS:marabwq:1,2014-09-07T19:45:00Z,27.9798,-97.0287,0.0,39.5,1111122 
NERRS,ioos:station:NOAA.NERRS:marabwq:1,2014-09-07T20:45:00Z,27.9798,-97.0287,0.0,39.5,1111122 
NERRS,ioos:station:NOAA.NERRS:marabwq:1,2014-09-07T21:45:00Z,27.9798,-97.0287,0.0,39.5,1111122 
NERRS,ioos:station:NOAA.NERRS:marabwq:1,2014-09-07T23:45:00Z,27.9798,-97.0287,0.0,39.5,1111122 
NERRS,ioos:station:NOAA.NERRS:marabwq:1,2014-09-08T01:45:00Z,27.9798,-97.0287,0.0,39.6,1111122 
NERRS,ioos:station:NOAA.NERRS:marabwq:1,2014-09-08T02:45:00Z,27.9798,-97.0287,0.0,39.6,1111122 
NERRS,ioos:station:NOAA.NERRS:marabwq:1,2014-09-08T03:45:00Z,27.9798,-97.0287,0.0,39.6,1111122 
NERRS,ioos:station:NOAA.NERRS:marabwq:1,2014-09-08T04:45:00Z,27.9798,-97.0287,0.0,39.6,1111122 
NERRS,ioos:station:NOAA.NERRS:marabwq:1,2014-09-08T06:45:00Z,27.9798,-97.0287,0.0,39.8,1111122 
NERRS,ioos:station:NOAA.NERRS:marabwq:1,2014-09-08T07:45:00Z,27.9798,-97.0287,0.0,39.8,1111122 
NERRS,ioos:station:NOAA.NERRS:marabwq:1,2014-09-08T08:45:00Z,27.9798,-97.0287,0.0,39.8,1111122 
NERRS,ioos:station:NOAA.NERRS:marabwq:1,2014-09-08T09:45:00Z,27.9798,-97.0287,0.0,39.8,1111122 
NERRS,ioos:station:NOAA.NERRS:marabwq:1,2014-09-08T11:45:00Z,27.9798,-97.0287,0.0,39.6,1111122 
NERRS,ioos:station:NOAA.NERRS:marabwq:1,2014-09-08T12:45:00Z,27.9798,-97.0287,0.0,39.5,1111122 
NERRS,ioos:station:NOAA.NERRS:marabwq:1,2014-09-08T13:45:00Z,27.9798,-97.0287,0.0,39.6,1111122 
NERRS,ioos:station:NOAA.NERRS:marabwq:1,2014-09-08T14:45:00Z,27.9798,-97.0287,0.0,39.6,1111122 
NERRS,ioos:station:NOAA.NERRS:marabwq:1,2014-09-08T15:45:00Z,27.9798,-97.0287,0.0,39.7,1111122 
NERRS,ioos:station:NOAA.NERRS:marabwq:1,2014-09-08T16:45:00Z,27.9798,-97.0287,0.0,39.7,1111122 
NERRS,ioos:station:NOAA.NERRS:marabwq:1,2014-09-08T17:45:00Z,27.9798,-97.0287,0.0,39.8,1111122 
NERRS,ioos:station:NOAA.NERRS:marabwq:1,2014-09-08T18:45:00Z,27.9798,-97.0287,0.0,36.1,1111122 
NERRS,ioos:station:NOAA.NERRS:marabwq:1,2014-09-08T21:45:00Z,27.9798,-97.0287,0.0,39.6,1111122 
NERRS,ioos:station:NOAA.NERRS:marabwq:1,2014-09-08T22:45:00Z,27.9798,-97.0287,0.0,39.6,1111122 
NERRS,ioos:station:NOAA.NERRS:marabwq:1,2014-09-08T23:45:00Z,27.9798,-97.0287,0.0,39.6,1111122 
NERRS,ioos:station:NOAA.NERRS:marabwq:1,2014-09-09T00:45:00Z,27.9798,-97.0287,0.0,39.6,1111122 
NERRS,ioos:station:NOAA.NERRS:marabwq:1,2014-09-09T01:45:00Z,27.9798,-97.0287,0.0,39.6,1111122 
NERRS,ioos:station:NOAA.NERRS:marabwq:1,2014-09-09T02:45:00Z,27.9798,-97.0287,0.0,39.6,1111122 
NERRS,ioos:station:NOAA.NERRS:marabwq:1,2014-09-09T03:45:00Z,27.9798,-97.0287,0.0,39.6,1111122 
NERRS,ioos:station:NOAA.NERRS:marabwq:1,2014-09-09T04:45:00Z,27.9798,-97.0287,0.0,39.6,1111122 
NERRS,ioos:station:NOAA.NERRS:marabwq:1,2014-09-09T06:45:00Z,27.9798,-97.0287,0.0,39.6,1111122 
NERRS,ioos:station:NOAA.NERRS:marabwq:1,2014-09-09T07:45:00Z,27.9798,-97.0287,0.0,39.6,1111122 
NERRS,ioos:station:NOAA.NERRS:marabwq:1,2014-09-09T08:45:00Z,27.9798,-97.0287,0.0,39.6,1111122 
NERRS,ioos:station:NOAA.NERRS:marabwq:1,2014-09-09T09:45:00Z,27.9798,-97.0287,0.0,39.6,1111122 
NERRS,ioos:station:NOAA.NERRS:marabwq:1,2014-09-09T10:45:00Z,27.9798,-97.0287,0.0,39.6,1111122 
NERRS,ioos:station:NOAA.NERRS:marabwq:1,2014-09-09T11:45:00Z,27.9798,-97.0287,0.0,39.5,1111122 
NERRS,ioos:station:NOAA.NERRS:marabwq:1,2014-09-09T12:45:00Z,27.9798,-97.0287,0.0,39.5,1111122 
NERRS,ioos:station:NOAA.NERRS:marabwq:1,2014-09-09T13:45:00Z,27.9798,-97.0287,0.0,39.5,1111122 
NERRS,ioos:station:NOAA.NERRS:marabwq:1,2014-09-09T14:45:00Z,27.9798,-97.0287,0.0,39.5,1111122 
NERRS,ioos:station:NOAA.NERRS:marabwq:1,2014-09-09T15:45:00Z,27.9798,-97.0287,0.0,39.5,1111122 
NERRS,ioos:station:NOAA.NERRS:marabwq:1,2014-09-09T16:45:00Z,27.9798,-97.0287,0.0,39.6,1111122 
NERRS,ioos:station:NOAA.NERRS:marabwq:1,2014-09-10T01:45:00Z,27.9798,-97.0287,0.0,39.7,1111122 
NERRS,ioos:station:NOAA.NERRS:marabwq:1,2014-09-10T02:45:00Z,27.9798,-97.0287,0.0,39.7,1111122 
NERRS,ioos:station:NOAA.NERRS:marabwq:1,2014-09-10T03:45:00Z,27.9798,-97.0287,0.0,39.6,1111122 
NERRS,ioos:station:NOAA.NERRS:marabwq:1,2014-09-10T04:45:00Z,27.9798,-97.0287,0.0,39.6,1111122 
NERRS,ioos:station:NOAA.NERRS:marabwq:1,2014-09-10T06:45:00Z,27.9798,-97.0287,0.0,39.7,1111122 
NERRS,ioos:station:NOAA.NERRS:marabwq:1,2014-09-10T07:45:00Z,27.9798,-97.0287,0.0,39.7,1111122 
NERRS,ioos:station:NOAA.NERRS:marabwq:1,2014-09-10T08:45:00Z,27.9798,-97.0287,0.0,39.7,1111122 
NERRS,ioos:station:NOAA.NERRS:marabwq:1,2014-09-10T10:45:00Z,27.9798,-97.0287,0.0,39.7,1111122 
NERRS,ioos:station:NOAA.NERRS:marabwq:1,2014-09-10T11:45:00Z,27.9798,-97.0287,0.0,39.7,1111122 
NERRS,ioos:station:NOAA.NERRS:marabwq:1,2014-09-10T12:45:00Z,27.9798,-97.0287,0.0,39.7,1111122 
NERRS,ioos:station:NOAA.NERRS:marabwq:1,2014-09-10T13:45:00Z,27.9798,-97.0287,0.0,39.7,1111122 
NERRS,ioos:station:NOAA.NERRS:marabwq:1,2014-09-10T14:45:00Z,27.9798,-97.0287,0.0,39.7,1111122 
NERRS,ioos:station:NOAA.NERRS:marabwq:1,2014-09-10T16:45:00Z,27.9798,-97.0287,0.0,39.7,1111122 
NERRS,ioos:station:NOAA.NERRS:marabwq:1,2014-09-10T18:45:00Z,27.9798,-97.0287,0.0,39.7,1111122 
NERRS,ioos:station:NOAA.NERRS:marabwq:1,2014-09-10T19:45:00Z,27.9798,-97.0287,0.0,39.7,1111122 
NERRS,ioos:station:NOAA.NERRS:marabwq:1,2014-09-10T20:45:00Z,27.9798,-97.0287,0.0,39.6,1111122 
NERRS,ioos:station:NOAA.NERRS:marabwq:1,2014-09-10T22:45:00Z,27.9798,-97.0287,0.0,39.7,1111122 
NERRS,ioos:station:NOAA.NERRS:marabwq:1,2014-09-10T23:45:00Z,27.9798,-97.0287,0.0,39.7,1111122 
NERRS,ioos:station:NOAA.NERRS:marabwq:1,2014-09-11T01:45:00Z,27.9798,-97.0287,0.0,39.6,1111122 
NERRS,ioos:station:NOAA.NERRS:marabwq:1,2014-09-11T02:45:00Z,27.9798,-97.0287,0.0,39.6,1111122 
NERRS,ioos:station:NOAA.NERRS:marabwq:1,2014-09-11T04:45:00Z,27.9798,-97.0287,0.0,39.5,1111122 
NERRS,ioos:station:NOAA.NERRS:marabwq:1,2014-09-11T06:45:00Z,27.9798,-97.0287,0.0,39.5,1111122 
NERRS,ioos:station:NOAA.NERRS:marabwq:1,2014-09-11T07:45:00Z,27.9798,-97.0287,0.0,39.5,1111122 
NERRS,ioos:station:NOAA.NERRS:marabwq:1,2014-09-11T08:45:00Z,27.9798,-97.0287,0.0,39.5,1111122 
NERRS,ioos:station:NOAA.NERRS:marabwq:1,2014-09-11T09:45:00Z,27.9798,-97.0287,0.0,39.5,1111122 
NERRS,ioos:station:NOAA.NERRS:marabwq:1,2014-09-11T10:45:00Z,27.9798,-97.0287,0.0,39.5,1111122 
NERRS,ioos:station:NOAA.NERRS:marabwq:1,2014-09-11T11:45:00Z,27.9798,-97.0287,0.0,39.4,1111122 
NERRS,ioos:station:NOAA.NERRS:marabwq:1,2014-09-11T13:45:00Z,27.9798,-97.0287,0.0,39.5,1111122 
NERRS,ioos:station:NOAA.NERRS:marabwq:1,2014-09-11T14:45:00Z,27.9798,-97.0287,0.0,39.5,1111122 
NERRS,ioos:station:NOAA.NERRS:marabwq:1,2014-09-11T16:45:00Z,27.9798,-97.0287,0.0,39.5,1111122 
NERRS,ioos:station:NOAA.NERRS:marabwq:1,2014-09-11T17:45:00Z,27.9798,-97.0287,0.0,39.5,1111122 
NERRS,ioos:station:NOAA.NERRS:marabwq:1,2014-09-11T19:45:00Z,27.9798,-97.0287,0.0,39.5,1111122 
NERRS,ioos:station:NOAA.NERRS:marabwq:1,2014-09-11T20:45:00Z,27.9798,-97.0287,0.0,39.5,1111122 
NERRS,ioos:station:NOAA.NERRS:marabwq:1,2014-09-11T21:45:00Z,27.9798,-97.0287,0.0,39.5,1111122 
NERRS,ioos:station:NOAA.NERRS:marabwq:1,2014-09-11T22:45:00Z,27.9798,-97.0287,0.0,39.6,1111122 
NERRS,ioos:station:NOAA.NERRS:marabwq:1,2014-09-11T23:45:00Z,27.9798,-97.0287,0.0,39.6,1111122 
NERRS,ioos:station:NOAA.NERRS:marabwq:1,2014-09-12T01:45:00Z,27.9798,-97.0287,0.0,39.6,1111122 
NERRS,ioos:station:NOAA.NERRS:marabwq:1,2014-09-12T02:45:00Z,27.9798,-97.0287,0.0,39.7,1111122 
NERRS,ioos:station:NOAA.NERRS:marabwq:1,2014-09-12T03:45:00Z,27.9798,-97.0287,0.0,39.7,1111122 
NERRS,ioos:station:NOAA.NERRS:marabwq:1,2014-09-12T04:45:00Z,27.9798,-97.0287,0.0,39.7,1111122 
NERRS,ioos:station:NOAA.NERRS:marabwq:1,2014-09-12T05:45:00Z,27.9798,-97.0287,0.0,39.7,1111122 
NERRS,ioos:station:NOAA.NERRS:marabwq:1,2014-09-12T06:45:00Z,27.9798,-97.0287,0.0,39.6,1111122 
NERRS,ioos:station:NOAA.NERRS:marabwq:1,2014-09-12T09:45:00Z,27.9798,-97.0287,0.0,39.6,1111122 
NERRS,ioos:station:NOAA.NERRS:marabwq:1,2014-09-12T10:45:00Z,27.9798,-97.0287,0.0,39.6,1111122 
NERRS,ioos:station:NOAA.NERRS:marabwq:1,2014-09-12T11:45:00Z,27.9798,-97.0287,0.0,39.6,1111122 
NERRS,ioos:station:NOAA.NERRS:marabwq:1,2014-09-12T12:45:00Z,27.9798,-97.0287,0.0,39.6,1111122 
NERRS,ioos:station:NOAA.NERRS:marabwq:1,2014-09-12T13:45:00Z,27.9798,-97.0287,0.0,39.6,1111122 
NERRS,ioos:station:NOAA.NERRS:marabwq:1,2014-09-12T14:45:00Z,27.9798,-97.0287,0.0,39.6,1111122 
NERRS,ioos:station:NOAA.NERRS:marabwq:1,2014-09-12T15:45:00Z,27.9798,-97.0287,0.0,39.8,1111122 
NERRS,ioos:station:NOAA.NERRS:marabwq:1,2014-09-12T16:45:00Z,27.9798,-97.0287,0.0,39.7,1111122 
NERRS,ioos:station:NOAA.NERRS:marabwq:1,2014-09-12T17:45:00Z,27.9798,-97.0287,0.0,39.7,1111122 
NERRS,ioos:station:NOAA.NERRS:marabwq:1,2014-09-12T18:45:00Z,27.9798,-97.0287,0.0,39.7,1111122 
NERRS,ioos:station:NOAA.NERRS:marabwq:1,2014-09-12T20:45:00Z,27.9798,-97.0287,0.0,39.5,1111122 
NERRS,ioos:station:NOAA.NERRS:marabwq:1,2014-09-12T21:45:00Z,27.9798,-97.0287,0.0,39.5,1111122 
NERRS,ioos:station:NOAA.NERRS:marabwq:1,2014-09-12T22:45:00Z,27.9798,-97.0287,0.0,39.4,1111122 
NERRS,ioos:station:NOAA.NERRS:marabwq:1,2014-09-12T23:45:00Z,27.9798,-97.0287,0.0,34.6,1111122 
NERRS,ioos:station:NOAA.NERRS:marabwq:1,2014-09-13T00:45:00Z,27.9798,-97.0287,0.0,36.3,1111122 
NERRS,ioos:station:NOAA.NERRS:marabwq:1,2014-09-13T01:45:00Z,27.9798,-97.0287,0.0,37.6,1111122 
NERRS,ioos:station:NOAA.NERRS:marabwq:1,2014-09-13T02:45:00Z,27.9798,-97.0287,0.0,33.9,1111122 
NERRS,ioos:station:NOAA.NERRS:marabwq:1,2014-09-13T03:45:00Z,27.9798,-97.0287,0.0,37.0,1111122 
NERRS,ioos:station:NOAA.NERRS:marabwq:1,2014-09-13T04:45:00Z,27.9798,-97.0287,0.0,36.8,1111122 
NERRS,ioos:station:NOAA.NERRS:marabwq:1,2014-09-13T05:45:00Z,27.9798,-97.0287,0.0,37.1,1111122 
NERRS,ioos:station:NOAA.NERRS:marabwq:1,2014-09-13T06:45:00Z,27.9798,-97.0287,0.0,36.8,1111122 
NERRS,ioos:station:NOAA.NERRS:marabwq:1,2014-09-13T08:45:00Z,27.9798,-97.0287,0.0,36.6,1111122 
NERRS,ioos:station:NOAA.NERRS:marabwq:1,2014-09-13T10:45:00Z,27.9798,-97.0287,0.0,35.8,1111122 
NERRS,ioos:station:NOAA.NERRS:marabwq:1,2014-09-13T11:45:00Z,27.9798,-97.0287,0.0,34.0,1111122 
NERRS,ioos:station:NOAA.NERRS:marabwq:1,2014-09-13T12:45:00Z,27.9798,-97.0287,0.0,34.1,1111122 
NERRS,ioos:station:NOAA.NERRS:marabwq:1,2014-09-13T13:45:00Z,27.9798,-97.0287,0.0,33.5,1111122 
NERRS,ioos:station:NOAA.NERRS:marabwq:1,2014-09-13T14:45:00Z,27.9798,-97.0287,0.0,35.3,1111122 
NERRS,ioos:station:NOAA.NERRS:marabwq:1,2014-09-13T15:45:00Z,27.9798,-97.0287,0.0,36.7,1111122 
NERRS,ioos:station:NOAA.NERRS:marabwq:1,2014-09-13T17:45:00Z,27.9798,-97.0287,0.0,38.5,1111122 
NERRS,ioos:station:NOAA.NERRS:marabwq:1,2014-09-13T18:45:00Z,27.9798,-97.0287,0.0,37.8,1111122 
NERRS,ioos:station:NOAA.NERRS:marabwq:1,2014-09-13T20:45:00Z,27.9798,-97.0287,0.0,36.7,1111122 
NERRS,ioos:station:NOAA.NERRS:marabwq:1,2014-09-13T21:45:00Z,27.9798,-97.0287,0.0,37.8,1111122 
NERRS,ioos:station:NOAA.NERRS:marabwq:1,2014-09-13T22:45:00Z,27.9798,-97.0287,0.0,37.9,1111122 
NERRS,ioos:station:NOAA.NERRS:marabwq:1,2014-09-13T23:45:00Z,27.9798,-97.0287,0.0,36.4,1111122 
NERRS,ioos:station:NOAA.NERRS:marabwq:1,2014-09-14T00:45:00Z,27.9798,-97.0287,0.0,38.5,1111122 